User: anonymous   Login
Location: ??????
(55.6130°N, 37.7882°E)
Time: 15:09:05
(UTC+00:00)
Language:

FENGYUN 3A - Orbit

View from above orbital plane
View from above orbital plane
View from above satellite
View from above satellite

Ground track
Ground track

The orbit data is extracted from the following two-line orbital elements,

1 32958U 08026A   24170.09043168  .00000186  00000-0  10940-3 0  9990
2 32958  98.6041 117.1834 0009891  72.2473 287.9782 14.19106096832085
Epoch (UTC): 18 June 2024 02:10:13
Eccentricity: 0.0009891
inclination: 98.6041°
perigee height: 821 km
apogee height: 835 km
right ascension of ascending node: 117.1834°
argument of perigee: 72.2473°
revolutions per day: 14.19106096
mean anomaly at epoch: 287.9782°
orbit number at epoch: 83208

The dashed part of the orbit path shows where the satellite is in the earth's shadow,  

DLR